Regional Weather Roundup
Issued by NWS

Home | Current Version | Previous Version | Graphics & Text | Print | Product List | Glossary On
Versions: 1 2 3 4 5 6 7 8 9 10 11 12 13 14 15 16 17 18 19 20 21 22 23 24 25 26 27 28 29 30 31 32 33 34 35 36 37 38 39 40 41 42 43 44 45 46 47 48 49 50
000
ASUS43 KOAX 181002
RWRNE

WEATHER ROUNDUP FOR NEBRASKA
NATIONAL WEATHER SERVICE OMAHA NE
400 AM CST THU DEC 18 2014

NOTES: SATELLITE DATA IS BEING USED TO AUGMENT CLOUD COVER ABOVE
       12000 FEET.
       "FAIR" INDICATES FEW OR NO CLOUDS BELOW 12,000 FEET WITH NO
       SIGNIFICANT WEATHER AND/OR OBSTRUCTIONS TO VISIBILITY.

  * THESE STATIONS DO NOT REPORT WEATHER SUCH AS RAIN...SNOW OR FOG.

NEZ001>004-019>022-054>056-181100-
NEBRASKA PANHANDLE

CITY           SKY/WX    TMP DP  RH WIND       PRES   REMARKS
SCOTTSBLUFF    FOG       11   9  92 NW8       30.02S VSB 1/4 WCI  -1
ALLIANCE       FOG       14  11  87 SW6       30.00S VSB 1/2 WCI   5
CHADRON        FOG       13  11  92 S7        30.03R VSB 1/4 WCI   3
SIDNEY         MOCLDY    10   7  87 W6        30.00R WCI   0
$$

NEZ057>060-069>072-079>082-181100-
SOUTHWEST NEBRASKA

CITY           SKY/WX    TMP DP  RH WIND       PRES   REMARKS
NORTH PLATTE   CLOUDY    24  23  96 SW6       30.08F FOG     WCI  17
IMPERIAL       CLOUDY    26  22  84 SW7       30.06R WCI  18
MCCOOK         CLOUDY    22  20  92 E3        30.09F FOG
$$

NEZ005>010-023>029-035>040-094-181100-
NORTH CENTRAL NEBRASKA

CITY           SKY/WX    TMP DP  RH WIND       PRES   REMARKS
VALENTINE      CLOUDY    24  21  88 SW8       30.07S WCI  15
BROKEN BOW     CLOUDY    24  22  91 S6        30.10F WCI  17
ORD            CLOUDY    23  20  88 SE6       30.13F WCI  16
$$

NEZ041-046>049-061>064-073>077-083>087-181100-
SOUTH CENTRAL NEBRASKA

CITY           SKY/WX    TMP DP  RH WIND       PRES   REMARKS
GRAND ISLAND   CLOUDY    23  21  92 SE5       30.17F WCI  17
HASTINGS       CLOUDY    24  21  88 E5        30.15F FOG     WCI  18
KEARNEY *      CLOUDY    25  19  80 E3        30.14F
$$

NEZ011>018-030>034-042>045-181100-
NORTHEAST NEBRASKA

CITY           SKY/WX    TMP DP  RH WIND       PRES   REMARKS
NORFOLK        LGT SNOW  25  19  78 SE6       30.18F WCI  18
BLAIR          CLOUDY    27  22  82 E5        30.22S WCI  21
COLUMBUS *     CLOUDY    25  16  68 SE6       30.21S WCI  18
TEKAMAH        CLOUDY    27  20  75 E6        30.24F WCI  20
$$

NEZ050>053-065>068-078-088>093-181100-
SOUTHEAST NEBRASKA

CITY           SKY/WX    TMP DP  RH WIND       PRES   REMARKS
LINCOLN        LGT SNOW  27  21  78 E5        30.23S WCI  22
OMAHA EPPLEY   CLOUDY    28  20  71 E6        30.25S WCI  22
FALLS CITY     LGT SNOW  27  25  92 E3        30.22S VSB 3/4
$$

NEZ044-045-051>053-067-181100-
OMAHA AREA

CITY           SKY/WX    TMP DP  RH WIND       PRES   REMARKS
OMAHA EPPLEY   CLOUDY    28  20  71 E6        30.25S WCI  22
BLAIR          CLOUDY    27  22  82 E5        30.22S WCI  21
OFFUTT AFB     CLOUDY    28  21  75 E5        30.23S WCI  22
$$



USA.gov is the U.S. government's official web portal to all federal, state and local government web resources and services.